Location: *
(46.1200°N, 11.2700°E)
Time: 13:15:12
(UTC+00:00)

MOS 1 Rocket - Pass Details

Date: 02 March 2021
Orbit: 615 x 829 km, 97.4° (Epoch: 23 April)

Event Time Altitude Azimuth Distance (km) Brightness Sun altitude
Rises 17:42:50 0° 8° (N) 3,164 6.6 -7.7°
Reaches altitude 10° 17:45:05 10° 5° (N) 2,270 5.9 -8.1°
Maximum altitude 17:50:01 59° 287° (WNW) 895 4.2 -9.0°
Drops below altitude 10° 17:55:11 10° 209° (SSW) 2,374 6.4 -9.9°
Sets 17:57:35 0° 206° (SSW) 3,321 7.2 -10.3°
